Wind_Speed
53 52 58 30 51 47 43 38 38 38 31 27 28 25 29 27 26 25 25 19 16 13 11 14 13 16 24 23 22 21 20 18
55 53 57 60 47 43 43 41 36 38 36 29 28 27 33 30 25 26 23 23 20 12 14 12 13 18 24 25 25 24 22 19
62 63 59 56 57 52 45 40 41 39 39 34 31 25 34 37 28 25 25 25 24 20 17 15 17 19 24 27 27 25 24 22
69 67 67 64 59 56 52 50 47 47 46 40 37 32 32 36 38 29 27 29 24 22 19 18 18 17 20 28 28 27 25 25
71 75 72 70 64 63 57 54 54 51 46 40 40 34 37 41 44 35 31 29 27 24 23 21 19 21 19 28 29 29 27 26
59 72 76 76 73 66 65 61 57 55 52 44 45 37 36 38 43 44 36 32 31 27 23 24 21 21 18 21 20 30 29 29
50 60 72 80 78 76 69 67 66 60 56 54 50 46 40 39 39 46 40 32 33 28 27 24 22 22 23 27 23 25 31 32
48 51 62 72 82 78 78 71 68 69 63 57 54 51 44 45 45 47 42 38 34 33 32 28 26 23 27 30 30 29 33 35
49 50 52 62 77 83 81 80 74 70 69 63 58 54 50 48 47 49 46 41 38 34 32 29 28 27 28 36 37 37 35 38
49 49 52 53 67 78 85 83 79 75 71 67 62 58 55 52 52 44 49 42 42 41 37 31 32 29 27 27 33 37 36 40
47 44 48 53 58 70 82 85 84 81 76 70 66 61 58 59 57 53 52 46 42 42 36 41 35 33 30 29 29 38 43 35
44 37 39 46 58 63 75 85 86 84 81 76 70 65 62 57 56 58 48 50 48 47 44 39 36 33 31 30 23 41 45 36
46 40 36 33 49 61 68 80 87 87 85 80 76 68 65 61 56 57 53 49 56 53 42 39 34 37 34 32 26 33 46 41
51 47 34 31 35 53 61 71 83 87 88 84 80 73 68 63 58 56 60 48 50 35 49 40 34 39 39 34 27 26 40 42
51 47 35 30 29 40 56 64 77 87 88 87 83 77 73 67 62 55 52 54 54 31 37 45 36 34 32 32 32 24 23 36
53 44 32 25 23 30 40 57 73 83 88 88 85 81 77 71 65 60 59 51 57 51 33 48 51 35 25 36 33 34 33 33
57 45 29 18 16 22 30 46 65 80 87 89 88 85 80 74 69 64 59 55 56 59 55 48 55 46 39 30 35 41 34 33
57 47 29 12 12 15 22 34 52 77 86 89 88 86 79 76 70 65 62 59 61 59 57 58 52 45 45 43 32 41 41 38
58 52 31 10 6 9 16 26 41 67 84 88 91 86 83 77 70 67 65 62 65 56 55 55 54 47 48 39 40 41 43 44
57 56 45 22 8 8 11 22 30 58 81 87 91 89 83 78 72 68 66 62 55 52 47 51 54 51 51 40 43 39 48 44
Wind_Direction
247 253 252 254 247 246 245 247 252 253 249 246 245 244 226 226 233 233 220 210 222 221 214 197 205 214 203 206 204 194 194 192
247 248 242 240 245 239 239 239 241 239 243 239 242 233 215 225 219 234 208 217 217 235 216 192 200 199 197 203 207 200 197 194
250 252 246 240 238 236 233 224 229 236 236 233 237 224 214 224 223 223 222 223 218 220 211 211 204 201 206 204 208 202 201 203
254 248 249 250 241 237 233 229 224 227 230 231 236 230 223 220 225 217 223 220 219 216 212 211 214 217 222 208 207 204 200 206
252 251 246 245 245 241 235 231 228 225 228 233 230 229 225 225 225 218 216 218 217 215 212 210 214 214 222 209 205 209 200 207
265 251 243 243 242 239 238 236 231 227 225 219 225 229 234 234 225 225 220 219 216 220 214 210 213 210 216 207 212 212 203 206
272 258 246 239 239 238 235 234 233 229 228 224 227 230 231 234 227 224 218 217 213 213 214 213 216 213 207 226 208 214 204 205
286 265 249 240 234 233 234 231 230 229 230 228 227 227 227 235 232 227 213 214 213 214 224 214 214 209 205 219 219 224 212 206
291 271 255 241 234 229 229 230 228 229 227 228 225 225 224 229 238 233 209 208 205 219 214 212 216 215 210 219 223 219 213 203
297 272 257 244 236 228 225 225 225 226 226 226 223 224 223 228 235 208 207 205 210 211 221 214 211 211 217 225 220 223 214 202
306 284 260 245 236 229 223 221 222 223 224 223 222 222 222 223 233 223 197 207 212 216 209 208 212 214 214 225 219 222 218 214
317 301 278 247 238 229 225 219 218 219 221 222 222 220 221 215 228 234 204 205 210 216 215 209 209 208 216 221 221 219 222 220
331 318 290 264 240 231 225 220 215 216 219 219 221 221 221 221 223 231 220 206 211 216 209 204 206 214 224 225 219 222 225 224
336 328 302 271 247 232 223 221 216 213 215 216 219 220 220 218 218 223 234 220 205 216 217 210 209 217 229 225 215 218 221 226
338 330 310 281 255 235 224 218 217 212 212 214 215 218 221 218 218 216 218 207 203 206 219 221 211 215 217 220 214 210 215 216
347 339 316 283 260 238 226 220 215 212 209 212 212 215 219 218 217 215 213 224 217 210 211 222 219 216 212 214 218 220 229 226
355 347 326 284 256 241 231 222 217 211 209 208 210 211 216 217 217 214 215 219 222 218 215 219 227 227 232 221 217 224 226 233
4 0 347 294 256 249 238 224 218 211 208 207 207 211 213 216 217 215 214 218 222 215 217 222 221 225 231 232 226 224 228 230
13 14 9 349 282 272 241 234 217 214 207 206 204 206 209 213 214 214 214 217 223 216 219 221 226 226 235 241 241 230 222 225
18 22 27 25 357 313 257 238 226 214 208 206 202 204 206 210 211 213 211 215 213 210 223 219 227 221 226 238 230 238 228 231
Height
5789 5788 5789 5787 5789 5794 5798 5801 5805 5806 5808 5810 5813 5816 5818 5819 5819 5821 5823 5824 5827 5829 5831 5833 5834 5835 5840 5844 5847 5850 5853 5856
5778 5778 5778 5781 5778 5785 5788 5792 5796 5798 5800 5804 5806 5809 5812 5814 5815 5817 5819 5821 5822 5825 5826 5829 5831 5833 5837 5841 5845 5847 5851 5856
5763 5764 5766 5767 5769 5772 5776 5782 5786 5789 5792 5796 5799 5803 5805 5808 5809 5813 5815 5817 5820 5823 5825 5827 5829 5832 5835 5838 5842 5845 5849 5853
5745 5749 5750 5752 5756 5760 5764 5769 5774 5778 5782 5787 5790 5794 5799 5802 5804 5807 5810 5813 5817 5819 5821 5825 5828 5830 5833 5835 5839 5843 5847 5851
5725 5727 5733 5736 5740 5746 5751 5755 5761 5767 5772 5777 5781 5785 5789 5795 5798 5801 5805 5809 5813 5815 5818 5822 5825 5828 5831 5832 5836 5840 5846 5849
5704 5703 5711 5717 5722 5730 5736 5741 5747 5754 5760 5766 5771 5776 5780 5784 5789 5794 5798 5804 5809 5811 5814 5818 5822 5824 5828 5829 5833 5837 5844 5846
5685 5680 5686 5693 5701 5711 5718 5725 5734 5741 5747 5754 5760 5766 5771 5776 5781 5786 5792 5798 5802 5806 5810 5815 5818 5821 5824 5827 5829 5833 5840 5843
5666 5660 5661 5668 5676 5688 5697 5707 5716 5725 5733 5741 5748 5755 5762 5768 5772 5778 5785 5791 5797 5801 5805 5810 5814 5817 5821 5824 5826 5829 5834 5838
5647 5640 5638 5642 5646 5661 5673 5686 5699 5708 5718 5727 5737 5744 5751 5757 5763 5769 5777 5784 5789 5796 5801 5805 5809 5813 5817 5820 5822 5824 5829 5834
5625 5617 5615 5619 5621 5634 5649 5664 5679 5692 5703 5713 5723 5732 5741 5748 5754 5759 5768 5776 5782 5789 5794 5800 5804 5807 5811 5815 5816 5821 5824 5829
5603 5595 5593 5598 5601 5609 5623 5640 5657 5672 5686 5698 5709 5720 5728 5738 5744 5750 5758 5768 5775 5781 5787 5793 5797 5802 5806 5809 5811 5816 5818 5824
5586 5579 5574 5578 5582 5588 5600 5617 5635 5652 5667 5683 5694 5707 5716 5727 5734 5740 5749 5759 5768 5775 5780 5784 5790 5795 5800 5803 5805 5809 5813 5819
5576 5567 5561 5561 5563 5571 5582 5596 5615 5632 5649 5666 5679 5693 5704 5714 5723 5732 5739 5750 5759 5767 5772 5779 5784 5788 5793 5798 5800 5803 5808 5813
5566 5556 5549 5547 5548 5556 5566 5580 5595 5613 5630 5647 5663 5679 5691 5703 5713 5722 5731 5742 5750 5758 5765 5771 5776 5782 5788 5790 5795 5798 5802 5809
5561 5549 5540 5536 5537 5542 5551 5564 5576 5592 5614 5629 5648 5663 5678 5692 5702 5712 5723 5731 5741 5748 5757 5763 5769 5775 5779 5784 5789 5796 5799 5805
5556 5540 5530 5526 5528 5532 5539 5547 5559 5577 5593 5613 5631 5648 5664 5679 5691 5703 5714 5723 5731 5739 5746 5754 5762 5767 5771 5779 5784 5791 5795 5800
5549 5532 5522 5520 5522 5526 5531 5537 5547 5560 5578 5596 5615 5631 5651 5667 5681 5694 5705 5715 5724 5730 5737 5746 5752 5761 5765 5771 5777 5784 5788 5793
5550 5530 5519 5516 5520 5523 5526 5528 5537 5548 5565 5581 5602 5621 5645 5655 5671 5685 5696 5707 5716 5724 5731 5738 5745 5751 5760 5766 5772 5778 5784 5789
5553 5535 5521 5518 5521 5523 5524 5526 5530 5539 5553 5571 5589 5610 5625 5644 5663 5675 5688 5698 5707 5716 5725 5732 5739 5749 5754 5760 5765 5771 5777 5782
5561 5544 5530 5523 5523 5524 5523 5524 5528 5535 5545 5562 5581 5597 5618 5636 5653 5667 5679 5689 5699 5709 5717 5725 5733 5741 5746 5752 5759 5763 5769 5774